Time,TemperatureF,DewpointF,PressureIn,WindDirection,WindDirectionDegrees,WindSpeedMPH,WindSpeedGustMPH,Humidity,HourlyPrecipIn,Conditions,Clouds,dailyrainin,SoftwareType,DateUTC
2013-08-12 00:04:00,72.0,62.1,29.62,South,180,2.2,2.2,71,0.00,,,0.00,WUHU216HW,2013-08-12 05:04:00,
2013-08-12 00:09:00,71.8,61.6,29.62,WSW,248,2.0,2.2,70,0.00,,,0.00,WUHU216HW,2013-08-12 05:09:00,
2013-08-12 00:14:00,71.6,61.4,29.62,SE,135,1.1,2.7,70,0.00,,,0.00,WUHU216HW,2013-08-12 05:14:00,
2013-08-12 00:19:00,71.6,61.4,29.62,ESE,113,1.1,2.7,70,0.00,,,0.00,WUHU216HW,2013-08-12 05:19:00,
2013-08-12 00:20:00,71.6,61.4,29.63,SE,135,1.1,1.1,70,0.00,,,0.00,WUHU216HW,2013-08-12 05:20:00,
2013-08-12 00:24:00,71.6,61.4,29.63,SE,135,1.1,1.3,70,0.00,,,0.00,WUHU216HW,2013-08-12 05:24:00,
2013-08-12 00:29:00,71.6,61.4,29.63,SE,135,1.1,1.1,70,0.00,,,0.00,WUHU216HW,2013-08-12 05:29:00,
2013-08-12 00:50:00,70.4,61.3,29.62,SE,135,0.7,0.7,73,0.00,,,0.00,WUHU216HW,2013-08-12 05:50:00,
2013-08-12 00:55:00,70.2,61.1,29.62,SE,135,1.1,1.1,73,0.00,,,0.00,WUHU216HW,2013-08-12 05:55:00,
2013-08-12 01:00:00,70.2,61.5,29.62,SE,135,0.4,1.1,74,0.00,,,0.00,WUHU216HW,2013-08-12 06:00:00,
2013-08-12 01:05:00,70.2,61.5,29.61,SE,135,3.4,3.4,74,0.00,,,0.00,WUHU216HW,2013-08-12 06:05:00,
2013-08-12 01:10:00,70.0,61.3,29.61,South,180,1.1,3.4,74,0.00,,,0.00,WUHU216HW,2013-08-12 06:10:00,
2013-08-12 01:15:00,70.0,61.3,29.61,SSE,158,0.9,2.9,74,0.00,,,0.00,WUHU216HW,2013-08-12 06:15:00,
2013-08-12 01:20:00,70.2,61.5,29.61,SE,135,0.2,2.9,74,0.00,,,0.00,WUHU216HW,2013-08-12 06:20:00,
2013-08-12 01:25:00,70.0,61.3,29.61,SE,135,0.0,2.2,74,0.00,,,0.00,WUHU216HW,2013-08-12 06:25:00,
2013-08-12 01:30:00,69.8,61.1,29.61,SE,135,1.1,1.6,74,0.00,,,0.00,WUHU216HW,2013-08-12 06:30:00,
2013-08-12 01:35:00,69.8,61.1,29.61,ESE,113,0.0,1.1,74,0.00,,,0.00,WUHU216HW,2013-08-12 06:35:00,
2013-08-12 01:40:00,69.7,60.9,29.61,SE,135,0.4,1.1,74,0.00,,,0.00,WUHU216HW,2013-08-12 06:40:00,
2013-08-12 01:45:00,69.7,60.9,29.61,SSE,158,1.6,1.6,74,0.00,,,0.00,WUHU216HW,2013-08-12 06:45:00,
2013-08-12 01:50:00,69.7,60.9,29.61,SSE,158,0.4,1.6,74,0.00,,,0.00,WUHU216HW,2013-08-12 06:50:00,
2013-08-12 01:55:00,69.7,60.9,29.61,SSE,158,0.4,2.2,74,0.00,,,0.00,WUHU216HW,2013-08-12 06:55:00,
2013-08-12 02:00:00,69.7,60.9,29.60,SE,135,0.2,2.2,74,0.00,,,0.00,WUHU216HW,2013-08-12 07:00:00,
2013-08-12 02:05:00,69.5,60.8,29.60,South,180,0.0,1.6,74,0.00,,,0.00,WUHU216HW,2013-08-12 07:05:00,
2013-08-12 02:10:00,69.5,60.8,29.60,SE,135,0.4,1.6,74,0.00,,,0.00,WUHU216HW,2013-08-12 07:10:00,
2013-08-12 02:15:00,69.3,60.6,29.60,SE,135,0.7,1.8,74,0.00,,,0.00,WUHU216HW,2013-08-12 07:15:00,
2013-08-12 02:20:00,69.1,60.5,29.60,ESE,113,1.1,2.2,74,0.00,,,0.00,WUHU216HW,2013-08-12 07:20:00,
2013-08-12 02:25:00,69.1,60.5,29.59,East,90,0.0,2.2,74,0.00,,,0.00,WUHU216HW,2013-08-12 07:25:00,
2013-08-12 02:30:00,69.1,60.9,29.60,SSE,158,1.6,1.8,75,0.00,,,0.00,WUHU216HW,2013-08-12 07:30:00,
2013-08-12 02:35:00,68.9,60.7,29.59,SSE,158,0.4,1.6,75,0.00,,,0.00,WUHU216HW,2013-08-12 07:35:00,
2013-08-12 02:40:00,68.9,60.7,29.59,SSE,158,0.0,0.4,75,0.00,,,0.00,WUHU216HW,2013-08-12 07:40:00,
2013-08-12 02:45:00,68.9,60.3,29.59,SE,135,0.0,1.1,74,0.00,,,0.00,WUHU216HW,2013-08-12 07:45:00,
2013-08-12 02:50:00,68.9,60.7,29.59,SSE,158,0.2,1.1,75,0.00,,,0.00,WUHU216HW,2013-08-12 07:50:00,
2013-08-12 02:55:00,68.8,60.5,29.59,SE,135,0.0,1.1,75,0.00,,,0.00,WUHU216HW,2013-08-12 07:55:00,
2013-08-12 03:00:00,68.8,60.5,29.59,ESE,113,0.0,0.0,75,0.00,,,0.00,WUHU216HW,2013-08-12 08:00:00,
2013-08-12 03:05:00,68.8,60.5,29.59,ESE,113,0.0,0.0,75,0.00,,,0.00,WUHU216HW,2013-08-12 08:05:00,
2013-08-12 03:10:00,68.8,60.5,29.59,ESE,113,0.0,0.0,75,0.00,,,0.00,WUHU216HW,2013-08-12 08:10:00,
2013-08-12 03:15:00,68.8,60.5,29.59,ESE,113,0.0,0.0,75,0.00,,,0.00,WUHU216HW,2013-08-12 08:15:00,
2013-08-12 03:20:00,68.8,60.5,29.59,SE,135,0.0,0.0,75,0.00,,,0.00,WUHU216HW,2013-08-12 08:20:00,
2013-08-12 03:25:00,68.8,60.1,29.59,SE,135,0.0,0.0,74,0.00,,,0.00,WUHU216HW,2013-08-12 08:25:00,
2013-08-12 03:30:00,68.8,60.5,29.59,SE,135,0.0,0.0,75,0.00,,,0.00,WUHU216HW,2013-08-12 08:30:00,
2013-08-12 03:35:00,68.6,60.3,29.59,SE,135,0.0,0.0,75,0.00,,,0.00,WUHU216HW,2013-08-12 08:35:00,
2013-08-12 03:40:00,68.6,60.3,29.59,ENE,68,0.0,0.0,75,0.00,,,0.00,WUHU216HW,2013-08-12 08:40:00,
2013-08-12 03:45:00,68.6,60.3,29.59,ENE,68,0.0,0.0,75,0.00,,,0.00,WUHU216HW,2013-08-12 08:45:00,
2013-08-12 03:50:00,68.4,60.2,29.59,ENE,68,0.0,0.0,75,0.00,,,0.00,WUHU216HW,2013-08-12 08:50:00,
2013-08-12 03:55:00,68.4,60.2,29.59,ENE,68,0.0,0.0,75,0.00,,,0.00,WUHU216HW,2013-08-12 08:55:00,
2013-08-12 04:00:00,68.4,60.2,29.59,ENE,68,0.0,0.0,75,0.00,,,0.00,WUHU216HW,2013-08-12 09:00:00,
2013-08-12 04:05:00,68.4,60.2,29.59,ENE,68,0.0,0.0,75,0.00,,,0.00,WUHU216HW,2013-08-12 09:05:00,
2013-08-12 04:10:00,68.4,60.6,29.59,ENE,68,0.0,0.0,76,0.00,,,0.00,WUHU216HW,2013-08-12 09:10:00,
2013-08-12 04:15:00,68.2,60.4,29.59,ENE,68,0.0,0.0,76,0.00,,,0.00,WUHU216HW,2013-08-12 09:15:00,
2013-08-12 04:20:00,68.2,60.4,29.59,ENE,68,0.0,0.0,76,0.00,,,0.00,WUHU216HW,2013-08-12 09:20:00,
2013-08-12 04:25:00,68.0,60.2,29.58,ENE,68,0.0,0.0,76,0.00,,,0.00,WUHU216HW,2013-08-12 09:25:00,
2013-08-12 04:30:00,68.0,60.2,29.58,ENE,68,0.0,0.0,76,0.00,,,0.00,WUHU216HW,2013-08-12 09:30:00,
2013-08-12 04:35:00,68.0,60.2,29.59,ENE,68,0.0,0.0,76,0.00,,,0.00,WUHU216HW,2013-08-12 09:35:00,
2013-08-12 04:40:00,68.0,60.2,29.59,ENE,68,0.0,0.0,76,0.00,,,0.00,WUHU216HW,2013-08-12 09:40:00,
2013-08-12 04:45:00,68.0,60.2,29.58,East,90,0.0,0.0,76,0.00,,,0.00,WUHU216HW,2013-08-12 09:45:00,
2013-08-12 04:50:00,67.9,60.0,29.58,East,90,0.0,0.0,76,0.00,,,0.00,WUHU216HW,2013-08-12 09:50:00,
2013-08-12 04:55:00,67.9,60.0,29.58,East,90,0.0,0.0,76,0.00,,,0.00,WUHU216HW,2013-08-12 09:55:00,
2013-08-12 05:00:00,67.7,59.9,29.58,East,90,0.0,0.0,76,0.00,,,0.00,WUHU216HW,2013-08-12 10:00:00,
2013-08-12 05:05:00,67.7,59.9,29.58,ESE,113,0.0,0.0,76,0.00,,,0.00,WUHU216HW,2013-08-12 10:05:00,
2013-08-12 05:10:00,67.5,60.0,29.58,ESE,113,0.0,0.0,77,0.00,,,0.00,WUHU216HW,2013-08-12 10:10:00,
2013-08-12 05:15:00,67.5,60.0,29.58,ESE,113,0.0,0.0,77,0.00,,,0.00,WUHU216HW,2013-08-12 10:15:00,
2013-08-12 05:20:00,67.3,59.9,29.58,SE,135,0.0,0.0,77,0.00,,,0.00,WUHU216HW,2013-08-12 10:20:00,
2013-08-12 05:21:00,67.3,59.9,29.58,SE,135,0.0,0.0,77,0.00,,,0.00,WUHU216HW,2013-08-12 10:21:00,
2013-08-12 05:25:00,67.3,59.9,29.58,SE,135,0.0,0.0,77,0.00,,,0.00,WUHU216HW,2013-08-12 10:25:00,
2013-08-12 05:30:00,67.3,59.9,29.58,SE,135,0.0,0.0,77,0.00,,,0.00,WUHU216HW,2013-08-12 10:30:00,
2013-08-12 05:51:00,66.6,59.1,29.57,SE,135,0.0,0.0,77,0.00,,,0.00,WUHU216HW,2013-08-12 10:51:00,
2013-08-12 05:56:00,66.6,59.1,29.57,SE,135,0.0,0.0,77,0.00,,,0.00,WUHU216HW,2013-08-12 10:56:00,
2013-08-12 06:01:00,66.6,59.1,29.57,SE,135,0.0,0.0,77,0.00,,,0.00,WUHU216HW,2013-08-12 11:01:00,
2013-08-12 06:06:00,66.4,59.4,29.58,SE,135,0.0,0.0,78,0.00,,,0.00,WUHU216HW,2013-08-12 11:06:00,
2013-08-12 06:11:00,66.4,59.4,29.57,SE,135,0.0,0.0,78,0.00,,,0.00,WUHU216HW,2013-08-12 11:11:00,
2013-08-12 06:16:00,66.2,59.2,29.57,SE,135,0.0,0.0,78,0.00,,,0.00,WUHU216HW,2013-08-12 11:16:00,
2013-08-12 06:21:00,66.2,59.2,29.57,SE,135,0.0,0.0,78,0.00,,,0.00,WUHU216HW,2013-08-12 11:21:00,
2013-08-12 06:26:00,66.2,59.2,29.58,SE,135,0.0,0.0,78,0.00,,,0.00,WUHU216HW,2013-08-12 11:26:00,
2013-08-12 06:31:00,66.2,59.2,29.57,SE,135,0.0,0.0,78,0.00,,,0.00,WUHU216HW,2013-08-12 11:31:00,
2013-08-12 06:36:00,66.1,59.1,29.57,ESE,113,0.0,0.0,78,0.00,,,0.00,WUHU216HW,2013-08-12 11:36:00,
2013-08-12 06:41:00,66.1,59.4,29.57,East,90,0.0,0.0,79,0.00,,,0.00,WUHU216HW,2013-08-12 11:41:00,
2013-08-12 06:46:00,66.2,59.6,29.57,SE,135,0.0,0.0,79,0.00,,,0.00,WUHU216HW,2013-08-12 11:46:00,
2013-08-12 06:51:00,66.2,59.6,29.57,SE,135,0.0,0.0,79,0.00,,,0.00,WUHU216HW,2013-08-12 11:51:00,
2013-08-12 07:00:00,66.4,60.1,29.56,SE,135,1.1,1.1,80,0.00,,,0.00,WUHU216HW,2013-08-12 12:00:00,
2013-08-12 07:05:00,66.4,60.1,29.56,SE,135,1.1,1.1,80,0.00,,,0.00,WUHU216HW,2013-08-12 12:05:00,
2013-08-12 07:10:00,66.4,60.1,29.56,SE,135,1.3,1.3,80,0.00,,,0.00,WUHU216HW,2013-08-12 12:10:00,
2013-08-12 07:15:00,66.4,60.1,29.56,SE,135,0.9,1.3,80,0.00,,,0.00,WUHU216HW,2013-08-12 12:15:00,
2013-08-12 07:20:00,66.6,60.3,29.56,SE,135,0.4,0.9,80,0.00,,,0.00,WUHU216HW,2013-08-12 12:20:00,
2013-08-12 07:25:00,66.6,60.3,29.55,SE,135,0.7,1.1,80,0.00,,,0.00,WUHU216HW,2013-08-12 12:25:00,
2013-08-12 07:30:00,66.6,60.3,29.55,ESE,113,0.7,1.1,80,0.00,,,0.00,WUHU216HW,2013-08-12 12:30:00,
2013-08-12 07:35:00,66.6,60.3,29.55,SE,135,0.7,1.1,80,0.00,,,0.00,WUHU216HW,2013-08-12 12:35:00,
2013-08-12 07:40:00,67.0,61.0,29.55,ESE,113,0.2,1.1,81,0.00,,,0.00,WUHU216HW,2013-08-12 12:40:00,
2013-08-12 07:45:00,67.3,61.0,29.56,SE,135,0.7,1.1,80,0.00,,,0.00,WUHU216HW,2013-08-12 12:45:00,
2013-08-12 07:50:00,68.0,61.7,29.56,SSE,158,2.0,2.0,80,0.00,,,0.00,WUHU216HW,2013-08-12 12:50:00,
2013-08-12 07:55:00,68.6,62.2,29.55,SE,135,1.8,2.5,80,0.00,,,0.00,WUHU216HW,2013-08-12 12:55:00,
2013-08-12 08:00:00,69.3,62.9,29.55,SSE,158,2.9,2.9,80,0.00,,,0.00,WUHU216HW,2013-08-12 13:00:00,
2013-08-12 08:05:00,69.8,63.0,29.55,SSW,203,1.1,2.9,79,0.00,,,0.00,WUHU216HW,2013-08-12 13:05:00,
2013-08-12 08:10:00,70.6,63.4,29.55,SE,135,2.0,3.8,78,0.00,,,0.00,WUHU216HW,2013-08-12 13:10:00,
2013-08-12 08:15:00,71.1,63.5,29.55,South,180,1.1,3.8,77,0.00,,,0.00,WUHU216HW,2013-08-12 13:15:00,
2013-08-12 08:20:00,71.6,64.0,29.55,SSE,158,2.5,2.7,77,0.00,,,0.00,WUHU216HW,2013-08-12 13:20:00,
2013-08-12 08:25:00,72.4,64.7,29.55,South,180,1.6,4.0,77,0.00,,,0.00,WUHU216HW,2013-08-12 13:25:00,
2013-08-12 08:30:00,72.9,64.2,29.55,South,180,4.5,4.5,74,0.00,,,0.00,WUHU216HW,2013-08-12 13:30:00,
2013-08-12 08:35:00,73.3,64.5,29.55,SW,225,1.1,4.5,74,0.00,,,0.00,WUHU216HW,2013-08-12 13:35:00,
2013-08-12 08:40:00,73.8,64.6,29.55,WSW,248,2.9,3.4,73,0.00,,,0.00,WUHU216HW,2013-08-12 13:40:00,
2013-08-12 08:45:00,74.3,64.8,29.55,SW,225,3.4,3.4,72,0.00,,,0.00,WUHU216HW,2013-08-12 13:45:00,
2013-08-12 08:50:00,74.7,65.1,29.55,SE,135,1.6,3.4,72,0.00,,,0.00,WUHU216HW,2013-08-12 13:50:00,
2013-08-12 08:55:00,74.9,64.9,29.55,SSW,203,2.2,3.6,71,0.00,,,0.00,WUHU216HW,2013-08-12 13:55:00,
2013-08-12 09:00:00,75.1,65.1,29.55,ESE,113,2.5,3.6,71,0.00,,,0.00,WUHU216HW,2013-08-12 14:00:00,
2013-08-12 09:05:00,75.4,65.0,29.55,South,180,1.1,3.4,70,0.00,,,0.00,WUHU216HW,2013-08-12 14:05:00,
2013-08-12 09:10:00,76.0,65.5,29.55,SE,135,2.0,2.7,70,0.00,,,0.00,WUHU216HW,2013-08-12 14:10:00,
2013-08-12 09:15:00,76.7,66.2,29.55,WSW,248,2.5,3.1,70,0.00,,,0.00,WUHU216HW,2013-08-12 14:15:00,
2013-08-12 09:20:00,77.4,66.1,29.55,SSE,158,1.8,3.4,68,0.00,,,0.00,WUHU216HW,2013-08-12 14:20:00,
2013-08-12 09:25:00,77.6,65.4,29.55,WSW,248,3.4,3.4,66,0.00,,,0.00,WUHU216HW,2013-08-12 14:25:00,
2013-08-12 09:30:00,77.6,65.4,29.55,SSW,203,2.0,3.4,66,0.00,,,0.00,WUHU216HW,2013-08-12 14:30:00,
2013-08-12 09:35:00,77.9,65.3,29.55,West,270,2.0,3.6,65,0.00,,,0.00,WUHU216HW,2013-08-12 14:35:00,
2013-08-12 09:40:00,78.8,64.8,29.55,WNW,293,0.7,3.6,62,0.00,,,0.00,WUHU216HW,2013-08-12 14:40:00,
2013-08-12 09:45:00,80.6,64.4,29.55,SSE,158,1.8,3.1,58,0.00,,,0.00,WUHU216HW,2013-08-12 14:45:00,
2013-08-12 09:50:00,80.6,65.5,29.55,SE,135,1.1,2.5,60,0.00,,,0.00,WUHU216HW,2013-08-12 14:50:00,
2013-08-12 09:55:00,80.3,65.2,29.55,SSW,203,2.5,2.5,60,0.00,,,0.00,WUHU216HW,2013-08-12 14:55:00,
2013-08-12 10:00:00,80.3,65.6,29.55,NNW,338,1.6,2.5,61,0.00,,,0.00,WUHU216HW,2013-08-12 15:00:00,
2013-08-12 10:05:00,81.5,65.3,29.55,NW,315,1.8,2.0,58,0.00,,,0.00,WUHU216HW,2013-08-12 15:05:00,
2013-08-12 10:10:00,83.9,66.0,29.55,SSW,203,1.3,2.7,55,0.00,,,0.00,WUHU216HW,2013-08-12 15:10:00,
2013-08-12 10:15:00,82.8,65.4,29.55,SSW,203,2.2,3.6,56,0.00,,,0.00,WUHU216HW,2013-08-12 15:15:00,
2013-08-12 10:20:00,82.1,65.3,29.55,South,180,1.1,3.6,57,0.00,,,0.00,WUHU216HW,2013-08-12 15:20:00,
2013-08-12 10:25:00,81.4,65.2,29.55,WSW,248,0.9,4.3,58,0.00,,,0.00,WUHU216HW,2013-08-12 15:25:00,
2013-08-12 10:30:00,82.4,65.1,29.55,West,270,0.9,4.3,56,0.00,,,0.00,WUHU216HW,2013-08-12 15:30:00,
2013-08-12 10:35:00,83.9,66.0,29.55,WSW,248,2.9,3.4,55,0.00,,,0.00,WUHU216HW,2013-08-12 15:35:00,
2013-08-12 10:40:00,83.2,65.8,29.55,NW,315,0.9,2.9,56,0.00,,,0.00,WUHU216HW,2013-08-12 15:40:00,
2013-08-12 10:45:00,82.1,65.3,29.55,West,270,1.6,2.7,57,0.00,,,0.00,WUHU216HW,2013-08-12 15:45:00,
2013-08-12 10:50:00,81.5,65.8,29.56,WSW,248,1.6,2.5,59,0.00,,,0.00,WUHU216HW,2013-08-12 15:50:00,
2013-08-12 10:55:00,83.2,66.8,29.55,South,180,0.4,2.5,58,0.00,,,0.00,WUHU216HW,2013-08-12 15:55:00,
2013-08-12 11:00:00,85.0,68.6,29.55,ESE,113,0.0,2.5,58,0.00,,,0.00,WUHU216HW,2013-08-12 16:00:00,
2013-08-12 11:05:00,84.4,67.5,29.55,WSW,248,0.9,2.7,57,0.00,,,0.00,WUHU216HW,2013-08-12 16:05:00,
2013-08-12 11:10:00,83.5,67.7,29.55,West,270,2.5,3.4,59,0.00,,,0.00,WUHU216HW,2013-08-12 16:10:00,
2013-08-12 11:15:00,85.0,68.1,29.56,West,270,2.5,3.4,57,0.00,,,0.00,WUHU216HW,2013-08-12 16:15:00,
2013-08-12 11:20:00,85.9,67.2,29.56,East,90,1.8,2.9,54,0.00,,,0.00,WUHU216HW,2013-08-12 16:20:00,
2013-08-12 11:25:00,85.7,68.1,29.56,West,270,1.8,3.8,56,0.00,,,0.00,WUHU216HW,2013-08-12 16:25:00,
2013-08-12 11:30:00,85.0,68.1,29.55,South,180,0.4,3.8,57,0.00,,,0.00,WUHU216HW,2013-08-12 16:30:00,
2013-08-12 11:35:00,85.3,67.9,29.55,West,270,1.1,2.2,56,0.00,,,0.00,WUHU216HW,2013-08-12 16:35:00,
2013-08-12 11:40:00,85.5,68.0,29.55,South,180,1.8,2.0,56,0.00,,,0.00,WUHU216HW,2013-08-12 16:40:00,
2013-08-12 11:45:00,85.1,67.7,29.55,WNW,293,1.3,2.2,56,0.00,,,0.00,WUHU216HW,2013-08-12 16:45:00,
2013-08-12 11:50:00,84.8,67.9,29.54,SSW,203,1.1,4.9,57,0.00,,,0.00,WUHU216HW,2013-08-12 16:50:00,
2013-08-12 11:55:00,85.1,68.2,29.54,WSW,248,2.2,4.9,57,0.00,,,0.00,WUHU216HW,2013-08-12 16:55:00,
2013-08-12 12:00:00,86.4,67.8,29.54,NNW,338,0.4,2.7,54,0.00,,,0.00,WUHU216HW,2013-08-12 17:00:00,
2013-08-12 12:05:00,86.4,67.8,29.54,West,270,1.1,2.5,54,0.00,,,0.00,WUHU216HW,2013-08-12 17:05:00,
2013-08-12 12:10:00,85.7,68.1,29.54,WSW,248,2.0,2.5,56,0.00,,,0.00,WUHU216HW,2013-08-12 17:10:00,
2013-08-12 12:15:00,86.8,68.7,29.53,SSW,203,1.3,3.1,55,0.00,,,0.00,WUHU216HW,2013-08-12 17:15:00,
2013-08-12 12:20:00,88.2,68.4,29.53,SW,225,1.6,3.1,52,0.00,,,0.00,WUHU216HW,2013-08-12 17:20:00,
2013-08-12 12:25:00,88.2,69.0,29.53,SW,225,0.7,3.1,53,0.00,,,0.00,WUHU216HW,2013-08-12 17:25:00,
2013-08-12 12:30:00,87.3,68.6,29.53,ENE,68,0.9,3.4,54,0.00,,,0.00,WUHU216HW,2013-08-12 17:30:00,
2013-08-12 12:35:00,87.8,68.6,29.53,SW,225,3.1,3.4,53,0.00,,,0.00,WUHU216HW,2013-08-12 17:35:00,
2013-08-12 12:40:00,88.6,68.1,29.53,NW,315,3.8,3.8,51,0.00,,,0.00,WUHU216HW,2013-08-12 17:40:00,
2013-08-12 12:45:00,88.6,69.2,29.53,South,180,1.1,3.8,53,0.00,,,0.00,WUHU216HW,2013-08-12 17:45:00,
2013-08-12 12:50:00,88.0,68.2,29.53,West,270,0.9,3.4,52,0.00,,,0.00,WUHU216HW,2013-08-12 17:50:00,
2013-08-12 12:55:00,88.0,68.8,29.53,West,270,1.8,3.4,53,0.00,,,0.00,WUHU216HW,2013-08-12 17:55:00,
2013-08-12 13:00:00,88.4,68.5,29.52,WNW,293,3.4,3.4,52,0.00,,,0.00,WUHU216HW,2013-08-12 18:00:00,
2013-08-12 13:05:00,87.5,67.7,29.53,WNW,293,5.6,5.6,52,0.00,,,0.00,WUHU216HW,2013-08-12 18:05:00,
2013-08-12 13:10:00,85.5,67.5,29.53,WNW,293,4.7,5.6,55,0.00,,,0.00,WUHU216HW,2013-08-12 18:10:00,
2013-08-12 13:15:00,86.0,69.0,29.52,West,270,2.5,5.1,57,0.00,,,0.00,WUHU216HW,2013-08-12 18:15:00,
2013-08-12 13:20:00,87.8,69.7,29.52,WNW,293,2.7,5.1,55,0.00,,,0.00,WUHU216HW,2013-08-12 18:20:00,
2013-08-12 13:26:00,88.4,69.0,29.52,West,270,3.6,5.1,53,0.00,,,0.00,WUHU216HW,2013-08-12 18:26:00,
2013-08-12 13:31:00,88.2,69.0,29.52,SSW,203,1.6,4.9,53,0.00,,,0.00,WUHU216HW,2013-08-12 18:31:00,
2013-08-12 13:36:00,87.3,68.6,29.51,West,270,2.9,2.9,54,0.00,,,0.00,WUHU216HW,2013-08-12 18:36:00,
2013-08-12 13:41:00,86.4,68.9,29.51,West,270,0.2,2.9,56,0.00,,,0.00,WUHU216HW,2013-08-12 18:41:00,
2013-08-12 13:46:00,87.8,69.1,29.51,WNW,293,1.1,2.5,54,0.00,,,0.00,WUHU216HW,2013-08-12 18:46:00,
2013-08-12 13:51:00,88.4,69.6,29.51,WNW,293,1.8,3.8,54,0.00,,,0.00,WUHU216HW,2013-08-12 18:51:00,
2013-08-12 13:56:00,88.0,69.3,29.50,WNW,293,3.4,4.0,54,0.00,,,0.00,WUHU216HW,2013-08-12 18:56:00,
2013-08-12 14:01:00,86.6,68.5,29.50,NNW,338,1.8,4.0,55,0.00,,,0.00,WUHU216HW,2013-08-12 19:01:00,
2013-08-12 14:02:00,86.6,69.5,29.50,WNW,293,2.0,2.0,57,0.00,,,0.00,WUHU216HW,2013-08-12 19:02:00,
2013-08-12 14:06:00,86.6,69.5,29.50,WNW,293,2.0,2.5,57,0.00,,,0.00,WUHU216HW,2013-08-12 19:06:00,
2013-08-12 14:11:00,86.6,69.5,29.50,WNW,293,2.0,2.2,57,0.00,,,0.00,WUHU216HW,2013-08-12 19:11:00,
2013-08-12 14:33:00,86.4,69.3,29.50,WNW,293,4.7,4.7,57,0.00,,,0.00,WUHU216HW,2013-08-12 19:33:00,
2013-08-12 14:38:00,86.9,69.3,29.50,NW,315,5.1,5.1,56,0.00,,,0.00,WUHU216HW,2013-08-12 19:38:00,
2013-08-12 14:43:00,86.2,68.7,29.50,NW,315,5.1,5.1,56,0.00,,,0.00,WUHU216HW,2013-08-12 19:43:00,
2013-08-12 14:48:00,85.0,68.6,29.50,WNW,293,2.9,5.1,58,0.00,,,0.00,WUHU216HW,2013-08-12 19:48:00,
2013-08-12 14:53:00,84.6,69.8,29.50,WNW,293,4.7,6.3,61,0.00,,,0.00,WUHU216HW,2013-08-12 19:53:00,
2013-08-12 14:58:00,86.0,69.5,29.50,West,270,3.1,6.3,58,0.00,,,0.00,WUHU216HW,2013-08-12 19:58:00,
2013-08-12 15:03:00,86.8,70.2,29.50,West,270,2.2,3.1,58,0.00,,,0.00,WUHU216HW,2013-08-12 20:03:00,
2013-08-12 15:08:00,86.2,69.2,29.49,SSW,203,1.1,3.8,57,0.00,,,0.00,WUHU216HW,2013-08-12 20:08:00,
2013-08-12 15:13:00,85.1,69.8,29.50,West,270,2.7,3.8,60,0.00,,,0.00,WUHU216HW,2013-08-12 20:13:00,
2013-08-12 15:18:00,86.0,69.5,29.50,WNW,293,1.3,2.9,58,0.00,,,0.00,WUHU216HW,2013-08-12 20:18:00,
2013-08-12 15:23:00,87.1,70.6,29.49,WNW,293,3.6,3.6,58,0.00,,,0.00,WUHU216HW,2013-08-12 20:23:00,
2013-08-12 15:28:00,87.7,70.0,29.50,WNW,293,4.7,5.8,56,0.00,,,0.00,WUHU216HW,2013-08-12 20:28:00,
2013-08-12 15:33:00,86.2,69.7,29.49,WNW,293,4.5,5.8,58,0.00,,,0.00,WUHU216HW,2013-08-12 20:33:00,
2013-08-12 15:38:00,85.3,69.4,29.49,West,270,2.5,6.3,59,0.00,,,0.00,WUHU216HW,2013-08-12 20:38:00,
2013-08-12 15:43:00,85.9,69.8,29.49,WNW,293,2.5,6.3,59,0.00,,,0.00,WUHU216HW,2013-08-12 20:43:00,
2013-08-12 15:48:00,86.9,69.8,29.48,West,270,2.9,4.7,57,0.00,,,0.00,WUHU216HW,2013-08-12 20:48:00,
2013-08-12 15:53:00,86.0,69.0,29.49,NW,315,5.1,5.4,57,0.00,,,0.00,WUHU216HW,2013-08-12 20:53:00,
2013-08-12 15:58:00,84.4,70.9,29.49,North,0,6.0,6.0,64,0.02,,,0.00,WUHU216HW,2013-08-12 20:58:00,
2013-08-12 16:03:00,81.9,69.0,29.49,North,0,0.9,6.0,65,0.05,,,0.06,WUHU216HW,2013-08-12 21:03:00,
2013-08-12 16:08:00,80.6,69.1,29.49,North,0,0.7,2.9,68,0.09,,,0.09,WUHU216HW,2013-08-12 21:08:00,
2013-08-12 16:13:00,79.6,67.6,29.49,NNE,23,0.0,1.1,67,0.16,,,0.16,WUHU216HW,2013-08-12 21:13:00,
2013-08-12 16:18:00,78.8,69.4,29.49,East,90,1.8,1.8,73,0.33,,,0.28,WUHU216HW,2013-08-12 21:18:00,
2013-08-12 16:23:00,77.4,67.7,29.48,NNE,23,0.4,1.8,72,0.41,,,0.41,WUHU216HW,2013-08-12 21:23:00,
2013-08-12 16:28:00,77.6,69.0,29.48,NNE,23,0.2,1.3,75,0.41,,,0.41,WUHU216HW,2013-08-12 21:28:00,
2013-08-12 16:33:00,78.5,69.0,29.48,WNW,293,0.0,1.1,73,0.41,,,0.41,WUHU216HW,2013-08-12 21:33:00,
2013-08-12 16:38:00,78.8,69.0,29.48,NNW,338,0.0,0.7,72,0.41,,,0.41,WUHU216HW,2013-08-12 21:38:00,
2013-08-12 16:43:00,79.6,70.9,29.48,North,0,0.0,0.0,75,0.41,,,0.41,WUHU216HW,2013-08-12 21:43:00,
2013-08-12 16:48:00,80.5,71.8,29.47,North,0,0.0,0.0,75,0.41,,,0.41,WUHU216HW,2013-08-12 21:48:00,
2013-08-12 16:53:00,80.6,71.7,29.47,North,0,0.0,0.0,74,0.41,,,0.41,WUHU216HW,2013-08-12 21:53:00,
2013-08-12 16:58:00,80.5,71.0,29.47,North,0,0.0,0.0,73,0.35,,,0.41,WUHU216HW,2013-08-12 21:58:00,
2013-08-12 17:03:00,80.6,72.4,29.47,North,0,0.0,0.0,76,0.35,,,0.41,WUHU216HW,2013-08-12 22:03:00,
2013-08-12 17:08:00,81.7,73.5,29.47,North,0,0.0,0.9,76,0.26,,,0.42,WUHU216HW,2013-08-12 22:08:00,
2013-08-12 17:13:00,82.3,73.5,29.47,NNE,23,0.0,0.9,75,0.19,,,0.42,WUHU216HW,2013-08-12 22:13:00,
2013-08-12 17:18:00,81.9,72.0,29.47,NNE,23,0.0,1.1,72,0.01,,,0.42,WUHU216HW,2013-08-12 22:18:00,
2013-08-12 17:23:00,81.9,73.6,29.46,NNE,23,0.0,1.1,76,0.01,,,0.42,WUHU216HW,2013-08-12 22:23:00,
2013-08-12 17:28:00,82.6,73.1,29.46,WNW,293,1.8,1.8,73,0.01,,,0.42,WUHU216HW,2013-08-12 22:28:00,
2013-08-12 17:33:00,82.4,72.1,29.46,NNW,338,0.9,1.8,71,0.01,,,0.42,WUHU216HW,2013-08-12 22:33:00,
2013-08-12 17:38:00,81.5,71.3,29.46,WSW,248,1.3,1.3,71,0.01,,,0.42,WUHU216HW,2013-08-12 22:38:00,
2013-08-12 17:43:00,80.8,70.6,29.45,NW,315,1.1,2.2,71,0.01,,,0.42,WUHU216HW,2013-08-12 22:43:00,
2013-08-12 17:48:00,82.4,72.5,29.46,WNW,293,2.2,2.5,72,0.01,,,0.42,WUHU216HW,2013-08-12 22:48:00,
2013-08-12 17:53:00,83.2,71.0,29.46,WSW,248,2.5,4.0,67,0.01,,,0.42,WUHU216HW,2013-08-12 22:53:00,
2013-08-12 17:58:00,82.4,71.2,29.46,NW,315,1.1,4.0,69,0.01,,,0.42,WUHU216HW,2013-08-12 22:58:00,
2013-08-12 18:03:00,81.2,70.5,29.46,NNW,338,1.1,4.3,70,0.01,,,0.42,WUHU216HW,2013-08-12 23:03:00,
2013-08-12 18:08:00,82.4,72.1,29.46,WNW,293,1.8,4.3,71,0.00,,,0.42,WUHU216HW,2013-08-12 23:08:00,
2013-08-12 18:13:00,83.2,71.5,29.46,West,270,3.1,3.1,68,0.00,,,0.42,WUHU216HW,2013-08-12 23:13:00,
2013-08-12 18:18:00,81.9,70.8,29.46,West,270,2.5,3.1,69,0.00,,,0.42,WUHU216HW,2013-08-12 23:18:00,
2013-08-12 18:23:00,80.5,70.2,29.46,NW,315,1.1,4.3,71,0.00,,,0.42,WUHU216HW,2013-08-12 23:23:00,
2013-08-12 18:28:00,81.0,71.1,29.46,West,270,2.0,4.3,72,0.00,,,0.42,WUHU216HW,2013-08-12 23:28:00,
2013-08-12 18:33:00,82.1,72.2,29.46,NNW,338,1.6,4.3,72,0.00,,,0.42,WUHU216HW,2013-08-12 23:33:00,
2013-08-12 18:38:00,82.1,70.8,29.46,West,270,2.5,4.3,69,0.00,,,0.42,WUHU216HW,2013-08-12 23:38:00,
2013-08-12 18:43:00,80.6,70.4,29.47,WNW,293,1.1,3.1,71,0.00,,,0.42,WUHU216HW,2013-08-12 23:43:00,
2013-08-12 18:48:00,79.9,70.5,29.47,WNW,293,1.6,3.1,73,0.00,,,0.42,WUHU216HW,2013-08-12 23:48:00,
2013-08-12 18:53:00,81.0,70.7,29.47,WNW,293,1.8,3.1,71,0.00,,,0.42,WUHU216HW,2013-08-12 23:53:00,
2013-08-12 18:58:00,82.3,71.0,29.47,WSW,248,0.9,2.7,69,0.00,,,0.42,WUHU216HW,2013-08-12 23:58:00,
2013-08-12 19:03:00,81.7,70.6,29.47,West,270,2.0,2.0,69,0.00,,,0.42,WUHU216HW,2013-08-13 00:03:00,
2013-08-12 19:08:00,81.7,70.6,29.47,WNW,293,2.5,2.5,69,0.00,,,0.42,WUHU216HW,2013-08-13 00:08:00,
2013-08-12 19:13:00,81.7,70.6,29.47,WNW,293,2.5,2.5,69,0.00,,,0.42,WUHU216HW,2013-08-13 00:13:00,
2013-08-12 19:34:00,80.6,68.2,29.46,NNW,338,0.0,0.0,66,0.00,,,0.42,WUHU216HW,2013-08-13 00:34:00,
2013-08-12 19:39:00,80.3,68.3,29.46,NNW,338,0.0,0.0,67,0.00,,,0.42,WUHU216HW,2013-08-13 00:39:00,
2013-08-12 19:44:00,79.6,67.6,29.47,NNW,338,0.0,0.0,67,0.00,,,0.42,WUHU216HW,2013-08-13 00:44:00,
2013-08-12 19:49:00,79.6,68.9,29.47,NNW,338,0.0,0.0,70,0.00,,,0.42,WUHU216HW,2013-08-13 00:49:00,
2013-08-12 19:54:00,79.6,68.9,29.47,NNW,338,0.0,0.0,70,0.00,,,0.42,WUHU216HW,2013-08-13 00:54:00,
2013-08-12 19:59:00,79.2,68.1,29.47,NNW,338,0.0,0.0,69,0.00,,,0.42,WUHU216HW,2013-08-13 00:59:00,
2013-08-12 20:04:00,78.7,67.6,29.47,NNW,338,0.0,0.0,69,0.00,,,0.42,WUHU216HW,2013-08-13 01:04:00,
2013-08-12 20:09:00,78.1,67.6,29.47,NNW,338,0.0,0.0,70,0.00,,,0.42,WUHU216HW,2013-08-13 01:09:00,
2013-08-12 20:14:00,77.6,67.5,29.47,NNW,338,0.0,0.0,71,0.00,,,0.42,WUHU216HW,2013-08-13 01:14:00,
2013-08-12 20:19:00,77.0,67.0,29.47,NNW,338,0.0,0.0,71,0.00,,,0.42,WUHU216HW,2013-08-13 01:19:00,
2013-08-12 20:24:00,77.0,68.5,29.47,NNW,338,0.0,0.0,75,0.00,,,0.42,WUHU216HW,2013-08-13 01:24:00,
2013-08-12 20:29:00,77.4,68.5,29.48,NNW,338,0.0,0.0,74,0.00,,,0.42,WUHU216HW,2013-08-13 01:29:00,
2013-08-12 20:34:00,77.2,67.9,29.48,NNW,338,0.0,0.0,73,0.00,,,0.42,WUHU216HW,2013-08-13 01:34:00,
2013-08-12 20:39:00,76.7,67.4,29.48,NNW,338,0.0,0.0,73,0.00,,,0.42,WUHU216HW,2013-08-13 01:39:00,
2013-08-12 20:44:00,76.3,67.1,29.48,NNW,338,0.0,0.0,73,0.00,,,0.42,WUHU216HW,2013-08-13 01:44:00,
2013-08-12 20:49:00,75.8,66.9,29.48,NNW,338,0.0,0.0,74,0.00,,,0.42,WUHU216HW,2013-08-13 01:49:00,
2013-08-12 20:54:00,75.2,66.4,29.49,NNW,338,0.0,0.0,74,0.00,,,0.42,WUHU216HW,2013-08-13 01:54:00,
2013-08-12 20:59:00,75.1,66.6,29.49,NNW,338,0.0,0.0,75,0.00,,,0.42,WUHU216HW,2013-08-13 01:59:00,
2013-08-12 21:04:00,74.7,66.2,29.49,NNW,338,0.0,0.0,75,0.00,,,0.42,WUHU216HW,2013-08-13 02:04:00,
2013-08-12 21:09:00,74.3,65.9,29.49,NNW,338,0.0,0.0,75,0.00,,,0.42,WUHU216HW,2013-08-13 02:09:00,
2013-08-12 21:14:00,74.2,66.2,29.50,NNW,338,0.0,0.0,76,0.00,,,0.42,WUHU216HW,2013-08-13 02:14:00,
2013-08-12 21:19:00,73.8,65.8,29.50,NNW,338,0.0,0.0,76,0.00,,,0.42,WUHU216HW,2013-08-13 02:19:00,
2013-08-12 21:24:00,73.8,66.2,29.50,NW,315,0.0,0.0,77,0.00,,,0.42,WUHU216HW,2013-08-13 02:24:00,
2013-08-12 21:29:00,73.4,65.8,29.50,West,270,1.1,1.6,77,0.00,,,0.42,WUHU216HW,2013-08-13 02:29:00,
2013-08-12 21:34:00,73.4,65.8,29.50,WNW,293,0.0,1.6,77,0.00,,,0.42,WUHU216HW,2013-08-13 02:34:00,
2013-08-12 21:39:00,73.4,65.8,29.50,WNW,293,0.0,0.9,77,0.00,,,0.42,WUHU216HW,2013-08-13 02:39:00,
2013-08-12 21:44:00,73.3,65.6,29.50,WNW,293,0.0,0.0,77,0.00,,,0.42,WUHU216HW,2013-08-13 02:44:00,
2013-08-12 21:49:00,73.3,67.2,29.50,NNW,338,0.0,0.9,81,0.00,,,0.42,WUHU216HW,2013-08-13 02:49:00,
2013-08-12 21:54:00,75.6,67.5,29.50,NNW,338,1.1,3.4,76,0.00,,,0.42,WUHU216HW,2013-08-13 02:54:00,
2013-08-12 21:59:00,76.5,68.0,29.50,NNW,338,0.9,3.4,75,0.00,,,0.42,WUHU216HW,2013-08-13 02:59:00,
2013-08-12 22:04:00,75.4,67.0,29.50,NW,315,1.3,1.8,75,0.00,,,0.42,WUHU216HW,2013-08-13 03:04:00,
2013-08-12 22:09:00,74.5,66.5,29.50,NNW,338,1.1,1.8,76,0.00,,,0.42,WUHU216HW,2013-08-13 03:09:00,
2013-08-12 22:14:00,73.8,66.2,29.50,NNW,338,0.7,1.8,77,0.00,,,0.42,WUHU216HW,2013-08-13 03:14:00,
2013-08-12 22:19:00,73.4,66.3,29.50,North,0,0.7,1.3,78,0.00,,,0.42,WUHU216HW,2013-08-13 03:19:00,
2013-08-12 22:24:00,73.1,66.3,29.50,NW,315,1.1,1.8,79,0.00,,,0.42,WUHU216HW,2013-08-13 03:24:00,
2013-08-12 22:29:00,72.7,66.2,29.50,NNW,338,1.8,1.8,80,0.00,,,0.42,WUHU216HW,2013-08-13 03:29:00,
2013-08-12 22:34:00,72.5,66.1,29.50,NNW,338,1.1,1.8,80,0.00,,,0.42,WUHU216HW,2013-08-13 03:34:00,
2013-08-12 22:39:00,72.4,65.2,29.50,NNW,338,0.4,1.6,78,0.00,,,0.42,WUHU216HW,2013-08-13 03:39:00,
2013-08-12 22:44:00,72.4,65.2,29.50,NNW,338,0.7,1.1,78,0.00,,,0.42,WUHU216HW,2013-08-13 03:44:00,
2013-08-12 22:49:00,72.2,65.0,29.50,NW,315,1.1,1.3,78,0.00,,,0.42,WUHU216HW,2013-08-13 03:49:00,
2013-08-12 22:54:00,72.0,65.2,29.50,NW,315,1.1,1.3,79,0.00,,,0.42,WUHU216HW,2013-08-13 03:54:00,
2013-08-12 22:59:00,72.0,65.2,29.51,North,0,1.1,1.3,79,0.00,,,0.42,WUHU216HW,2013-08-13 03:59:00,
2013-08-12 23:01:00,72.0,65.2,29.51,NW,315,0.7,1.1,79,0.00,,,0.42,WUHU216HW,2013-08-13 04:01:00,
2013-08-12 23:06:00,71.8,65.0,29.51,North,0,1.3,1.3,79,0.00,,,0.42,WUHU216HW,2013-08-13 04:06:00,
2013-08-12 23:11:00,71.6,64.8,29.51,NNW,338,0.9,1.3,79,0.00,,,0.42,WUHU216HW,2013-08-13 04:11:00,
2013-08-12 23:16:00,71.6,64.8,29.50,NNW,338,0.7,1.3,79,0.00,,,0.42,WUHU216HW,2013-08-13 04:16:00,
2013-08-12 23:20:00,71.6,64.8,29.51,NNW,338,0.9,0.9,79,0.00,,,0.42,WUHU216HW,2013-08-13 04:20:00,
2013-08-12 23:21:00,71.6,64.8,29.51,NNW,338,0.9,1.3,79,0.00,,,0.42,WUHU216HW,2013-08-13 04:21:00,
2013-08-12 23:26:00,71.6,64.8,29.51,NNW,338,0.9,0.9,79,0.00,,,0.42,WUHU216HW,2013-08-13 04:26:00,
2013-08-12 23:50:00,71.1,63.9,29.51,North,0,0.4,0.4,78,0.00,,,0.42,WUHU216HW,2013-08-13 04:50:00,
2013-08-12 23:55:00,71.1,63.9,29.51,North,0,0.0,0.4,78,0.00,,,0.42,WUHU216HW,2013-08-13 04:55:00,